Location: Newark
(45.8667°N, 9.7333°E)
Time: 01:09:04
(UTC+00:00)

Vanguard 3 - Pass Details

Date: 29 January 2020
Orbit: 508 x 3263 km, 33.3° (Epoch: 26 February)

Event Time Altitude Azimuth Distance (km) Brightness Sun altitude
Rises 13:06:46 0° 194° (SSW) 6,040 13.0 22.8°
Reaches altitude 10° 13:11:43 10° 181° (S) 5,422 12.7 22.4°
Maximum altitude 13:23:42 23° 136° (SE) 4,975 11.5 21.5°
Drops below altitude 10° 13:37:08 10° 94° (E) 6,178 11.4 20.3°
Sets 13:43:15 0° 82° (E) 7,061 11.6 19.8°
